Location: Newark
(34.0131°N, 4.3314°W)
Time: 06:39:34
(UTC+00:00)

Explorer 11/Cluster Stage 4 - Pass Details

Date: 28 October 2019
Orbit: 467 x 1259 km, 28.8° (Epoch: 12 November)

Event Time Altitude Azimuth Distance (km) Brightness Sun altitude
Rises 08:59:25 0° 264° (W) 2,744 9.0 26.1°
Reaches altitude 10° 09:02:00 10° 254° (WSW) 1,754 8.2 26.5°
Maximum altitude 09:05:28 29° 192° (SSW) 902 7.5 27.1°
Drops below altitude 10° 09:08:40 10° 130° (SE) 1,613 10.0 27.6°
Sets 09:10:57 0° 118° (ESE) 2,480 10.3 27.9°
